Tracking 18851 objects as of 25-Nov-2017
HD Live streaming from Space Station
objects crossing your sky now

COSMOS 1226

Track COSMOS 1226 now!
10-day predictions
COSMOS 1226 is classified as:


NORAD ID: 12091
Int'l Code: 1980-099A
Perigee: 965.3 km
Apogee: 1,016.0 km
Inclination: 82.9 °
Period: 104.8 minutes
Semi major axis: 7361 km
RCS: 2.1045 m2 (large)
Launch date: December 10, 1980
Source: Commonwealth of Independent States (former USSR) (CIS)
Launch site: PLESETSK MISSILE AND SPACE COMPLEX (PKMTR)
aabbcc
Your satellite tracking list
Your tracking list is empty




NASA's NSSDC Master Catalog

Two Line Element Set (TLE):
1 12091U 80099A   17328.78085850  .00000030  00000-0  15714-4 0  9996
2 12091  82.9390 158.7165 0034434 135.5917 299.4720 13.74484249853519
Source of the keplerian elements: AFSPC